Weather History for Oklahoma City / Page Muni, OK

Change the Weather History Date:

Wednesday, March 13, 2013

  Actual Average (KOKC) Record (KOKC)
Temperature  
Mean Temperature 45 °F 51 °F  
Max Temperature 62 °F 63 °F 90 °F (1967)
Min Temperature 28 °F 40 °F 14 °F (1950)
Degree Days  
Heating Degree Days 20 14  
Month to date heating degree days 203  
Since 1 July heating degree days 2953  
Cooling Degree Days 0 0  
Month to date cooling degree days 0  
Year to date cooling degree days 1  
Moisture  
Dew Point 29 °F    
Average Humidity 57    
Maximum Humidity 93    
Minimum Humidity 32    
Precipitation  
Precipitation 0.00 in 0.09 in 1.39 in (1922)
Month to date precipitation 1.17  
Year to date precipitation 4.14  
Sea Level Pressure  
Sea Level Pressure 30.38 in    
Wind  
Wind Speed 7 mph (SSE)    
Max Wind Speed 15 mph    
Max Gust Speed 21 mph    
Visibility 10 miles    
Events      
T = Trace of Precipitation, MM = Missing Value Source: NWS Daily Summary

Daily Weather History Graph

Daily Weather History Graph

Search for Another Location

Airport:

Trip Planner

Search our weather history database for the weather conditions in past years. The results will help you decide how hot, cold, wet, or windy it might be!

Date:

Astronomy

Mar. 13, 2013 Rise Set
Actual Time 7:44 AM CDT 7:37 PM CDT
Civil Twilight 7:19 AM CDT 8:02 PM CDT
Nautical Twilight 6:49 AM CDT 8:32 PM CDT
Astronomical Twilight 6:19 AM CDT 9:02 PM CDT
Moon 8:30 AM CDT (3/13) 9:48 PM CDT (3/13)
Length of Visible Light 12h 43m
Length of Day
11h 53m
Waxing Crescent, 4% of the Moon is Illuminated
Mar 13
Waxing Crescent
Mar 19
First Quarter
Mar 27
Full
Apr 2
Last Quarter
Apr 10
New

Hourly Weather History & Observations

Time (CDT) Temp. Windchill Dew Point Humidity Pressure Visibility Wind Dir Wind Speed Gust Speed Precip Events Conditions
12:35 AM 41.0 °F 39.0 °F 28.4 °F 61% 30.37 in 10.0 mi NW 3.5 mph - N/A   Clear
12:55 AM 39.2 °F 35.9 °F 30.2 °F 70% 30.37 in 10.0 mi WNW 4.6 mph - N/A   Clear
1:15 AM 39.2 °F 35.9 °F 28.4 °F 65% 30.37 in 10.0 mi NNW 4.6 mph - N/A   Clear
1:35 AM 39.2 °F 35.0 °F 30.2 °F 70% 30.38 in 10.0 mi NW 5.8 mph - N/A   Clear
1:55 AM 35.6 °F 29.9 °F 28.4 °F 75% 30.38 in 10.0 mi North 6.9 mph - N/A   Clear
2:15 AM 35.6 °F 29.2 °F 28.4 °F 75% 30.38 in 10.0 mi NNE 8.1 mph - N/A   Clear
2:35 AM 35.6 °F 31.7 °F 28.4 °F 75% 30.39 in 10.0 mi NNE 4.6 mph - N/A   Clear
2:55 AM 35.6 °F 31.7 °F 28.4 °F 75% 30.38 in 10.0 mi NNE 4.6 mph - N/A   Clear
3:15 AM 33.8 °F 27.7 °F 26.6 °F 75% 30.38 in 10.0 mi NE 6.9 mph - N/A   Clear
3:35 AM 33.8 °F 28.6 °F 26.6 °F 75% 30.38 in 10.0 mi ENE 5.8 mph - N/A   Clear
3:55 AM 35.6 °F 30.7 °F 28.4 °F 75% 30.39 in 10.0 mi ENE 5.8 mph - N/A   Clear
4:15 AM 33.8 °F 27.7 °F 28.4 °F 81% 30.38 in 10.0 mi ENE 6.9 mph - N/A   Clear
4:35 AM 33.8 °F 27.7 °F 26.6 °F 75% 30.38 in 10.0 mi ENE 6.9 mph - N/A   Clear
4:55 AM 32.0 °F 28.7 °F 26.6 °F 80% 30.39 in 10.0 mi East 3.5 mph - N/A   Clear
5:15 AM 32.0 °F 28.7 °F 28.4 °F 87% 30.39 in 10.0 mi East 3.5 mph - N/A   Clear
5:35 AM 33.8 °F 29.6 °F 26.6 °F 75% 30.40 in 10.0 mi East 4.6 mph - N/A   Clear
5:55 AM 33.8 °F 30.8 °F 28.4 °F 81% 30.40 in 10.0 mi East 3.5 mph - N/A   Clear
6:15 AM 30.2 °F 26.7 °F 26.6 °F 86% 30.40 in 10.0 mi SSW 3.5 mph - N/A   Clear
6:35 AM 30.2 °F 26.7 °F 28.4 °F 93% 30.41 in 10.0 mi SSE 3.5 mph - N/A   Clear
6:55 AM 32.0 °F 26.4 °F 26.6 °F 80% 30.41 in 10.0 mi SE 5.8 mph - N/A   Clear
7:15 AM 32.0 °F 24.8 °F 26.6 °F 80% 30.41 in 10.0 mi ESE 8.1 mph - N/A   Clear
7:35 AM 32.0 °F 27.5 °F 26.6 °F 80% 30.42 in 10.0 mi ESE 4.6 mph - N/A   Clear
7:55 AM 28.4 °F - 26.6 °F 93% 30.42 in 10.0 mi North - - N/A   Clear
8:15 AM 32.0 °F - 26.6 °F 80% 30.43 in 10.0 mi North - - N/A   Clear
8:35 AM 33.8 °F 29.6 °F 28.4 °F 81% 30.43 in 10.0 mi South 4.6 mph - N/A   Clear
8:55 AM 37.4 °F 34.9 °F 28.4 °F 70% 30.44 in 10.0 mi South 3.5 mph - N/A   Clear
9:15 AM 39.2 °F - 28.4 °F 65% 30.44 in 10.0 mi North - - N/A   Clear
9:35 AM 41.0 °F - 28.4 °F 61% 30.45 in 10.0 mi North - - N/A   Clear
9:55 AM 44.6 °F 40.2 °F 24.8 °F 46% 30.46 in 10.0 mi SE 8.1 mph - N/A   Clear
10:15 AM 46.4 °F 41.1 °F 21.2 °F 37% 30.46 in 10.0 mi SE 11.5 mph - N/A   Clear
10:35 AM 46.4 °F 41.5 °F 21.2 °F 37% 30.47 in 10.0 mi ESE 10.4 mph - N/A   Clear
10:55 AM 48.2 °F - 23.0 °F 37% 30.47 in 10.0 mi SE 9.2 mph - N/A   Clear
11:15 AM 50.0 °F - 24.8 °F 37% 30.47 in 10.0 mi SSE 8.1 mph - N/A   Clear
11:35 AM 50.0 °F - 24.8 °F 37% 30.47 in 10.0 mi North - - N/A   Clear
11:55 AM 51.8 °F - 24.8 °F 35% 30.46 in 10.0 mi South 10.4 mph - N/A   Clear
12:15 PM 53.6 °F - 24.8 °F 33% 30.46 in 10.0 mi South 6.9 mph - N/A   Scattered Clouds
12:35 PM 53.6 °F - 24.8 °F 33% 30.45 in 10.0 mi SSE 5.8 mph - N/A   Scattered Clouds
12:55 PM 53.6 °F - 24.8 °F 33% 30.43 in 10.0 mi South 12.7 mph - N/A   Scattered Clouds
1:15 PM 55.4 °F - 26.6 °F 33% 30.42 in 10.0 mi South 13.8 mph 17.3 mph N/A   Mostly Cloudy
1:35 PM 55.4 °F - 26.6 °F 33% 30.42 in 10.0 mi South 11.5 mph 20.7 mph N/A   Scattered Clouds
1:55 PM 57.2 °F - 28.4 °F 33% 30.41 in 10.0 mi South 15.0 mph - N/A   Scattered Clouds
2:15 PM 57.2 °F - 30.2 °F 36% 30.40 in 10.0 mi North - - N/A   Clear
2:35 PM 59.0 °F - 32.0 °F 36% 30.39 in 10.0 mi SSW 8.1 mph - N/A   Clear
2:55 PM 59.0 °F - 32.0 °F 36% 30.38 in 10.0 mi SSW 12.7 mph 17.3 mph N/A   Clear
3:15 PM 59.0 °F - 32.0 °F 36% 30.37 in 10.0 mi SSW 12.7 mph 19.6 mph N/A   Clear
3:35 PM 59.0 °F - 32.0 °F 36% 30.36 in 10.0 mi South 15.0 mph 18.4 mph N/A   Clear
3:55 PM 59.0 °F - 32.0 °F 36% 30.35 in 10.0 mi SSW 11.5 mph 20.7 mph N/A   Clear
4:15 PM 60.8 °F - 32.0 °F 34% 30.34 in 10.0 mi South 11.5 mph 18.4 mph N/A   Clear
4:35 PM 60.8 °F - 32.0 °F 34% 30.34 in 10.0 mi South 12.7 mph 18.4 mph N/A   Clear
4:55 PM 62.6 °F - 32.0 °F 32% 30.33 in 10.0 mi South 15.0 mph 18.4 mph N/A   Clear
5:15 PM 62.6 °F - 32.0 °F 32% 30.32 in 10.0 mi South 13.8 mph - N/A   Clear
5:55 PM 62.6 °F - 32.0 °F 32% 30.32 in 10.0 mi SSW 13.8 mph - N/A   Clear
6:15 PM 60.8 °F - 32.0 °F 34% 30.32 in 10.0 mi SW 11.5 mph 17.3 mph N/A   Clear
6:35 PM 59.0 °F - 32.0 °F 36% 30.32 in 10.0 mi SSW 9.2 mph - N/A   Clear
6:55 PM 59.0 °F - 33.8 °F 39% 30.32 in 10.0 mi SSW 8.1 mph - N/A   Clear
7:15 PM 55.4 °F - 35.6 °F 47% 30.32 in 10.0 mi SSW 6.9 mph - N/A   Clear
7:35 PM 53.6 °F - 35.6 °F 51% 30.32 in 10.0 mi SSW 6.9 mph - N/A   Clear
7:55 PM 50.0 °F - 35.6 °F 58% 30.31 in 10.0 mi South 6.9 mph - N/A   Clear
8:15 PM 48.2 °F - 35.6 °F 62% 30.31 in 10.0 mi South 5.8 mph - N/A   Clear
8:35 PM 48.2 °F - 35.6 °F 62% 30.30 in 10.0 mi South 9.2 mph - N/A   Clear
8:55 PM 48.2 °F - 35.6 °F 62% 30.30 in 10.0 mi SSE 8.1 mph - N/A   Clear
9:15 PM 46.4 °F 41.9 °F 35.6 °F 66% 30.30 in 10.0 mi SSE 9.2 mph - N/A   Partly Cloudy
9:35 PM 46.4 °F 41.9 °F 33.8 °F 62% 30.29 in 10.0 mi SSE 9.2 mph - N/A   Clear
9:55 PM 46.4 °F 41.5 °F 33.8 °F 62% 30.30 in 10.0 mi SSE 10.4 mph - N/A   Clear
10:15 PM 46.4 °F 41.9 °F 33.8 °F 62% 30.30 in 10.0 mi SSE 9.2 mph - N/A   Partly Cloudy
10:35 PM 46.4 °F 41.5 °F 32.0 °F 57% 30.31 in 10.0 mi SE 10.4 mph - N/A   Clear
10:55 PM 48.2 °F - 32.0 °F 54% 30.31 in 10.0 mi SSE 11.5 mph - N/A   Partly Cloudy
11:15 PM 48.2 °F - 32.0 °F 54% 30.31 in 10.0 mi SSE 12.7 mph - N/A   Partly Cloudy
11:55 PM 46.4 °F 41.1 °F 32.0 °F 57% 30.31 in 10.0 mi SSE 11.5 mph - N/A   Scattered Clouds